NOO7162 TJSJ-TXKF

Flight info

Callsign NOO7162
Flight time 2h 4m
Altitude 32000
Route GLADA3 NUBUS/M084F320 L459 TALSU/M084F330 L458 GECAL POPOP1
Aircraft B77W/H-SDE1E2E3FGHIJ2J3J4J5M1RWXY/LB1D1

Departure

Time 2026-04-21 20:57
Airport Luis Munoz Marin International Airport (TJSJ)

Arrival

Time 2026-04-21 23:02
Airport L.F. Wade International Airport (TXKF)
Time Latitude Longitude Altitude Speed Heading
2026-04-21 19:33 18.43952 -66.00705 29 ft 0 kts 153°
2026-04-21 20:43 18.43956 -66.00706 29 ft 1 kts 152°
2026-04-21 20:43 18.43975 -66.00718 28 ft 3 kts 152°
2026-04-21 20:44 18.43998 -66.00731 28 ft 3 kts 150°
2026-04-21 20:44 18.44021 -66.00745 28 ft 3 kts 157°
2026-04-21 20:44 18.44037 -66.00748 28 ft 2 kts 190°
2026-04-21 20:44 18.44051 -66.00742 28 ft 2 kts 215°
2026-04-21 20:45 18.44062 -66.00730 28 ft 2 kts 242°
2026-04-21 20:45 18.44070 -66.00708 28 ft 3 kts 246°
2026-04-21 20:45 18.44074 -66.00697 28 ft 0 kts 246°
2026-04-21 20:53 18.44072 -66.00703 28 ft 2 kts 246°
2026-04-21 20:53 18.44056 -66.00743 28 ft 9 kts 249°
2026-04-21 20:53 18.44027 -66.00819 27 ft 11 kts 247°
2026-04-21 20:53 18.43997 -66.00894 26 ft 10 kts 247°
2026-04-21 20:54 18.43969 -66.00962 26 ft 9 kts 247°
2026-04-21 20:54 18.43933 -66.01051 24 ft 16 kts 247°
2026-04-21 20:54 18.43888 -66.01164 23 ft 16 kts 247°
2026-04-21 20:54 18.43845 -66.01269 23 ft 14 kts 246°
2026-04-21 20:55 18.43807 -66.01360 23 ft 12 kts 247°
2026-04-21 20:55 18.43776 -66.01439 23 ft 11 kts 247°
2026-04-21 20:55 18.43757 -66.01502 24 ft 6 kts 271°
2026-04-21 20:55 18.43779 -66.01543 24 ft 8 kts 318°
2026-04-21 20:56 18.43822 -66.01568 24 ft 4 kts 349°
2026-04-21 20:56 18.43848 -66.01556 24 ft 4 kts 57°
2026-04-21 20:56 18.43853 -66.01546 24 ft 0 kts 68°
2026-04-21 20:57 18.43935 -66.01340 23 ft 66 kts 67°
2026-04-21 20:57 18.44211 -66.00661 26 ft 132 kts 67°
2026-04-21 20:57 18.44638 -65.99606 131 ft 177 kts 68°
2026-04-21 20:57 18.45224 -65.98464 827 ft 178 kts 55°
2026-04-21 20:58 18.46086 -65.97510 1583 ft 186 kts 38°
2026-04-21 20:58 18.47196 -65.96905 2305 ft 181 kts 20°
2026-04-21 20:58 18.48465 -65.96516 2647 ft 195 kts 14°
2026-04-21 20:58 18.49792 -65.96287 3236 ft 195 kts
2026-04-21 20:59 18.51206 -65.96124 3555 ft 212 kts
2026-04-21 20:59 18.52737 -65.95950 3919 ft 229 kts
2026-04-21 20:59 18.54357 -65.95761 4341 ft 244 kts
2026-04-21 20:59 18.56135 -65.95694 4741 ft 262 kts 359°
2026-04-21 21:00 18.57999 -65.95779 5080 ft 275 kts 358°
2026-04-21 21:00 18.59896 -65.95878 6000 ft 271 kts 357°
2026-04-21 21:00 18.61767 -65.95975 6766 ft 273 kts 357°
2026-04-21 21:00 18.63686 -65.96075 7482 ft 276 kts 357°
2026-04-21 21:01 18.65593 -65.96175 8224 ft 278 kts 358°
2026-04-21 21:01 18.67543 -65.96276 8986 ft 279 kts 358°
2026-04-21 21:01 18.69485 -65.96377 9725 ft 282 kts 357°
2026-04-21 21:01 18.71465 -65.96481 10346 ft 289 kts 357°
2026-04-21 21:02 18.73522 -65.96587 10697 ft 306 kts 357°
2026-04-21 21:02 18.75726 -65.96703 11064 ft 323 kts 357°
2026-04-21 21:02 18.78046 -65.96824 11442 ft 340 kts 356°
2026-04-21 21:02 18.80463 -65.96950 11843 ft 355 kts 356°
2026-04-21 21:03 18.82977 -65.97082 12265 ft 370 kts 356°
2026-04-21 21:03 18.85604 -65.97219 12817 ft 380 kts 356°
2026-04-21 21:03 18.88265 -65.97358 13536 ft 385 kts 356°
2026-04-21 21:03 18.90939 -65.97498 14259 ft 390 kts 356°
2026-04-21 21:04 18.93667 -65.97640 14958 ft 396 kts 356°
2026-04-21 21:04 18.96446 -65.97750 15684 ft 402 kts 358°
2026-04-21 21:04 18.99268 -65.97775 16390 ft 407 kts 358°
2026-04-21 21:04 19.02137 -65.97796 17074 ft 413 kts 358°
2026-04-21 21:05 19.05004 -65.97820 17746 ft 418 kts 358°
2026-04-21 21:05 19.07926 -65.97847 18467 ft 422 kts 357°
2026-04-21 21:05 19.10894 -65.97876 19210 ft 425 kts 357°
2026-04-21 21:05 19.13876 -65.97906 19923 ft 428 kts 356°
2026-04-21 21:06 19.16865 -65.97937 20607 ft 432 kts 356°
2026-04-21 21:06 19.19888 -65.97969 21291 ft 436 kts 356°
2026-04-21 21:06 19.22949 -65.98002 21962 ft 439 kts 355°
2026-04-21 21:06 19.26003 -65.98035 22611 ft 442 kts 355°
2026-04-21 21:07 19.29073 -65.98069 23231 ft 446 kts 355°
2026-04-21 21:07 19.32208 -65.98103 23886 ft 448 kts 355°
2026-04-21 21:07 19.35356 -65.98138 24501 ft 452 kts 355°
2026-04-21 21:07 19.38490 -65.98172 25097 ft 455 kts 354°
2026-04-21 21:08 19.41686 -65.98207 25689 ft 458 kts 354°
2026-04-21 21:08 19.44891 -65.98243 26271 ft 462 kts 354°
2026-04-21 21:08 19.48121 -65.98278 26829 ft 465 kts 354°
2026-04-21 21:08 19.51373 -65.98315 27387 ft 468 kts 354°
2026-04-21 21:09 19.54600 -65.98350 27933 ft 471 kts 353°
2026-04-21 21:09 19.57896 -65.98386 28475 ft 474 kts 353°
2026-04-21 21:09 19.61235 -65.98423 29001 ft 478 kts 353°
2026-04-21 21:09 19.64572 -65.98460 29602 ft 479 kts 353°
2026-04-21 21:10 19.67917 -65.98496 29954 ft 481 kts 353°
2026-04-21 21:10 19.71241 -65.98532 29977 ft 478 kts 353°
2026-04-21 21:10 19.77848 -65.98603 29980 ft 474 kts 353°
2026-04-21 21:11 19.84512 -65.98677 29981 ft 476 kts 353°
2026-04-21 21:11 19.91152 -65.98750 29984 ft 476 kts 353°
2026-04-21 21:12 19.97768 -65.98824 29985 ft 478 kts 353°
2026-04-21 21:12 20.04442 -65.98898 29985 ft 475 kts 353°
2026-04-21 21:13 20.11036 -65.98971 29986 ft 475 kts 353°
2026-04-21 21:13 20.17686 -65.99004 29984 ft 478 kts 356°
2026-04-21 21:14 20.24329 -65.98480 29991 ft 481 kts 358°
2026-04-21 21:14 20.31043 -65.97933 29992 ft 481 kts 357°
2026-04-21 21:15 20.37738 -65.97411 29997 ft 483 kts 357°
2026-04-21 21:15 20.44443 -65.96897 29997 ft 480 kts 357°
2026-04-21 21:16 20.51114 -65.96393 30001 ft 481 kts 357°
2026-04-21 21:16 20.57838 -65.95887 30000 ft 479 kts 357°
2026-04-21 21:17 20.64477 -65.95390 29998 ft 479 kts 356°
2026-04-21 21:17 20.71165 -65.94890 30001 ft 481 kts 356°
2026-04-21 21:18 20.77822 -65.94390 30002 ft 479 kts 356°
2026-04-21 21:18 20.84483 -65.93891 30003 ft 480 kts 356°
2026-04-21 21:19 20.91163 -65.93390 30005 ft 479 kts 356°
2026-04-21 21:19 20.97839 -65.92890 30009 ft 481 kts 356°
2026-04-21 21:20 21.04485 -65.92389 30013 ft 479 kts 356°
2026-04-21 21:20 21.11213 -65.91885 30008 ft 481 kts 356°
2026-04-21 21:21 21.17851 -65.91385 30015 ft 481 kts 356°
2026-04-21 21:21 21.24568 -65.90879 30011 ft 480 kts 356°
2026-04-21 21:22 21.31223 -65.90378 30007 ft 481 kts 356°
2026-04-21 21:22 21.37914 -65.89872 30012 ft 480 kts 356°
2026-04-21 21:23 21.44602 -65.89368 30011 ft 481 kts 356°
2026-04-21 21:23 21.51284 -65.88844 30006 ft 481 kts 359°
2026-04-21 21:24 21.57972 -65.87738 30017 ft 487 kts
2026-04-21 21:24 21.64675 -65.86557 30009 ft 487 kts
2026-04-21 21:25 21.71392 -65.85375 30014 ft 486 kts
2026-04-21 21:25 21.78075 -65.84201 30011 ft 488 kts
2026-04-21 21:26 21.84779 -65.83022 30013 ft 486 kts
2026-04-21 21:26 21.91479 -65.81845 30010 ft 488 kts
2026-04-21 21:27 21.98149 -65.80670 30015 ft 486 kts
2026-04-21 21:27 22.04837 -65.79494 30010 ft 487 kts
2026-04-21 21:28 22.11566 -65.78309 30015 ft 489 kts
2026-04-21 21:29 22.21644 -65.76531 30011 ft 490 kts
2026-04-21 21:29 22.28374 -65.75342 30016 ft 488 kts
2026-04-21 21:30 22.35083 -65.74157 30018 ft 490 kts
2026-04-21 21:30 22.41819 -65.72965 30013 ft 489 kts
2026-04-21 21:31 22.48524 -65.71777 30016 ft 490 kts
2026-04-21 21:31 22.55305 -65.70576 30018 ft 490 kts
2026-04-21 21:32 22.62039 -65.69381 30013 ft 492 kts
2026-04-21 21:32 22.68797 -65.68180 30014 ft 490 kts
2026-04-21 21:33 22.75524 -65.66984 30021 ft 491 kts
2026-04-21 21:33 22.82290 -65.65779 30005 ft 490 kts
2026-04-21 21:34 22.88988 -65.64587 30018 ft 491 kts
2026-04-21 21:34 22.95785 -65.63374 30022 ft 491 kts
2026-04-21 21:35 23.02537 -65.62169 30022 ft 492 kts
2026-04-21 21:35 23.09272 -65.60966 30033 ft 492 kts
2026-04-21 21:36 23.16044 -65.59753 30034 ft 492 kts
2026-04-21 21:36 23.22814 -65.58542 30039 ft 493 kts
2026-04-21 21:37 23.29593 -65.57327 30032 ft 493 kts
2026-04-21 21:37 23.36372 -65.56110 30032 ft 492 kts
2026-04-21 21:38 23.43153 -65.54892 30033 ft 493 kts
2026-04-21 21:38 23.49897 -65.54000 30031 ft 487 kts 353°
2026-04-21 21:39 23.56590 -65.54787 30031 ft 477 kts 345°
2026-04-21 21:39 23.63113 -65.55923 30037 ft 476 kts 344°
2026-04-21 21:40 23.69687 -65.57069 30033 ft 477 kts 345°
2026-04-21 21:40 23.76250 -65.58210 30037 ft 477 kts 344°
2026-04-21 21:41 23.82815 -65.59353 30033 ft 477 kts 344°
2026-04-21 21:41 23.89377 -65.60496 30034 ft 476 kts 344°
2026-04-21 21:42 23.95970 -65.61646 30035 ft 478 kts 344°
2026-04-21 21:42 24.02504 -65.62785 30034 ft 478 kts 344°
2026-04-21 21:43 24.09074 -65.63931 30038 ft 477 kts 344°
2026-04-21 21:43 24.15641 -65.65080 30036 ft 480 kts 344°
2026-04-21 21:44 24.22233 -65.66232 30036 ft 477 kts 344°
2026-04-21 21:44 24.28815 -65.67386 30035 ft 479 kts 344°
2026-04-21 21:45 24.35379 -65.68536 30033 ft 478 kts 344°
2026-04-21 21:45 24.41947 -65.69688 30037 ft 477 kts 344°
2026-04-21 21:46 24.48566 -65.70853 30033 ft 480 kts 344°
2026-04-21 21:46 24.55162 -65.72012 30033 ft 477 kts 344°
2026-04-21 21:47 24.61734 -65.73170 30037 ft 481 kts 344°
2026-04-21 21:47 24.68319 -65.74329 30035 ft 478 kts 344°
2026-04-21 21:48 24.74915 -65.75494 30034 ft 481 kts 344°
2026-04-21 21:48 24.81524 -65.76660 30035 ft 480 kts 344°
2026-04-21 21:49 24.88146 -65.77831 30031 ft 481 kts 344°
2026-04-21 21:49 24.94847 -65.78642 30034 ft 489 kts 354°
2026-04-21 21:50 25.01716 -65.78172 30034 ft 495 kts 358°
2026-04-21 21:50 25.08594 -65.77621 30031 ft 495 kts 358°
2026-04-21 21:51 25.15457 -65.77074 30032 ft 494 kts 358°
2026-04-21 21:51 25.22335 -65.76530 30035 ft 498 kts 357°
2026-04-21 21:52 25.29205 -65.75985 30034 ft 495 kts 357°
2026-04-21 21:52 25.36082 -65.75441 30033 ft 497 kts 357°
2026-04-21 21:53 25.43018 -65.74892 30032 ft 496 kts 357°
2026-04-21 21:53 25.49877 -65.74348 30034 ft 495 kts 357°
2026-04-21 21:54 25.56775 -65.73801 30035 ft 494 kts 357°
2026-04-21 21:54 25.63616 -65.73257 30035 ft 495 kts 357°
2026-04-21 21:55 25.70533 -65.72708 30035 ft 496 kts 356°
2026-04-21 21:55 25.77411 -65.72162 30038 ft 499 kts 356°
2026-04-21 21:56 25.84313 -65.71611 30035 ft 496 kts 357°
2026-04-21 21:56 25.91277 -65.71057 30035 ft 500 kts 356°
2026-04-21 21:57 25.98170 -65.70506 30044 ft 498 kts 356°
2026-04-21 21:57 26.01698 -65.70227 30185 ft 509 kts 356°
2026-04-21 21:57 26.05228 -65.69946 30739 ft 512 kts 357°
2026-04-21 21:57 26.08746 -65.69662 31600 ft 507 kts 356°
2026-04-21 21:58 26.12303 -65.69377 32003 ft 510 kts 356°
2026-04-21 21:58 26.19300 -65.68813 32037 ft 501 kts 356°
2026-04-21 21:59 26.26286 -65.68253 32040 ft 502 kts 356°
2026-04-21 21:59 26.33284 -65.67693 32044 ft 505 kts 356°
2026-04-21 22:00 26.40284 -65.67129 32042 ft 502 kts 356°
2026-04-21 22:00 26.47242 -65.66569 32046 ft 504 kts 356°
2026-04-21 22:01 26.54257 -65.66004 32047 ft 504 kts 356°
2026-04-21 22:01 26.61261 -65.65438 32049 ft 503 kts 356°
2026-04-21 22:02 26.68280 -65.64871 32056 ft 504 kts 356°
2026-04-21 22:02 26.75286 -65.64304 32056 ft 505 kts 356°
2026-04-21 22:03 26.82318 -65.63735 32057 ft 505 kts 356°
2026-04-21 22:03 26.89305 -65.63168 32061 ft 506 kts 356°
2026-04-21 22:04 26.96363 -65.62595 32063 ft 506 kts 355°
2026-04-21 22:04 27.03379 -65.62024 32067 ft 506 kts 355°
2026-04-21 22:05 27.10374 -65.61454 32068 ft 503 kts 355°
2026-04-21 22:05 27.17403 -65.60883 32071 ft 507 kts 355°
2026-04-21 22:06 27.24393 -65.60310 32068 ft 503 kts 355°
2026-04-21 22:06 27.31419 -65.59737 32071 ft 505 kts 355°
2026-04-21 22:07 27.38459 -65.59161 32073 ft 505 kts 355°
2026-04-21 22:07 27.45490 -65.58585 32073 ft 505 kts 355°
2026-04-21 22:08 27.52513 -65.58009 32078 ft 505 kts 355°
2026-04-21 22:08 27.59556 -65.57431 32078 ft 508 kts 355°
2026-04-21 22:09 27.66593 -65.56851 32079 ft 504 kts 355°
2026-04-21 22:09 27.73632 -65.56271 32088 ft 505 kts 355°
2026-04-21 22:10 27.80634 -65.55695 32087 ft 506 kts 355°
2026-04-21 22:10 27.87679 -65.55112 32087 ft 504 kts 355°
2026-04-21 22:11 27.94713 -65.54531 32090 ft 506 kts 355°
2026-04-21 22:11 28.01715 -65.53952 32093 ft 506 kts 355°
2026-04-21 22:12 28.08757 -65.53368 32094 ft 506 kts 355°
2026-04-21 22:12 28.15769 -65.52786 32092 ft 505 kts 355°
2026-04-21 22:13 28.22757 -65.52205 32091 ft 504 kts 355°
2026-04-21 22:13 28.29785 -65.51620 32097 ft 505 kts 355°
2026-04-21 22:14 28.36810 -65.51034 32102 ft 503 kts 355°
2026-04-21 22:14 28.43793 -65.50452 32104 ft 504 kts 355°
2026-04-21 22:15 28.50767 -65.49869 32107 ft 503 kts 355°
2026-04-21 22:15 28.57760 -65.49284 32110 ft 502 kts 355°
2026-04-21 22:16 28.64754 -65.48698 32112 ft 503 kts 355°
2026-04-21 22:16 28.71736 -65.48114 32118 ft 505 kts 355°
2026-04-21 22:17 28.78785 -65.47521 32114 ft 503 kts 355°
2026-04-21 22:17 28.85723 -65.46936 32122 ft 501 kts 355°
2026-04-21 22:18 28.92676 -65.46352 32119 ft 503 kts 355°
2026-04-21 22:18 28.99697 -65.45760 32122 ft 501 kts 355°
2026-04-21 22:19 29.06662 -65.45171 32119 ft 501 kts 355°
2026-04-21 22:19 29.13634 -65.44582 32119 ft 501 kts 355°
2026-04-21 22:20 29.20540 -65.43996 32120 ft 498 kts 355°
2026-04-21 22:20 29.27488 -65.43408 32120 ft 499 kts 355°
2026-04-21 22:21 29.34423 -65.42818 32126 ft 498 kts 355°
2026-04-21 22:21 29.41340 -65.42241 32124 ft 496 kts 354°
2026-04-21 22:22 29.48177 -65.42556 32132 ft 486 kts 347°
2026-04-21 22:22 29.54925 -65.43085 32129 ft 487 kts 347°
2026-04-21 22:23 29.61693 -65.43614 32128 ft 490 kts 347°
2026-04-21 22:23 29.68505 -65.44142 32129 ft 488 kts 347°
2026-04-21 22:24 29.75217 -65.44662 32132 ft 487 kts 348°
2026-04-21 22:24 29.81998 -65.45189 32129 ft 485 kts 348°
2026-04-21 22:25 29.88712 -65.45709 32132 ft 483 kts 348°
2026-04-21 22:25 29.95442 -65.46233 32129 ft 486 kts 348°
2026-04-21 22:26 30.02192 -65.46758 32135 ft 485 kts 348°
2026-04-21 22:26 30.08912 -65.47280 32134 ft 481 kts 348°
2026-04-21 22:27 30.15599 -65.47804 32127 ft 484 kts 348°
2026-04-21 22:27 30.22293 -65.48325 32128 ft 481 kts 348°
2026-04-21 22:28 30.28998 -65.48851 32133 ft 484 kts 348°
2026-04-21 22:28 30.35731 -65.49377 32131 ft 481 kts 348°
2026-04-21 22:29 30.42392 -65.49899 32134 ft 478 kts 348°
2026-04-21 22:29 30.49050 -65.50423 32135 ft 479 kts 348°
2026-04-21 22:30 30.55700 -65.50946 32129 ft 481 kts 348°
2026-04-21 22:30 30.62353 -65.51469 32134 ft 477 kts 348°
2026-04-21 22:31 30.68970 -65.51991 32128 ft 479 kts 348°
2026-04-21 22:31 30.75633 -65.52517 32128 ft 477 kts 348°
2026-04-21 22:32 30.82237 -65.53040 32131 ft 478 kts 348°
2026-04-21 22:32 30.88865 -65.53564 32137 ft 475 kts 348°
2026-04-21 22:33 30.95478 -65.54089 32137 ft 477 kts 348°
2026-04-21 22:33 31.02057 -65.54610 32070 ft 471 kts 348°
2026-04-21 22:33 31.05290 -65.54864 31411 ft 471 kts 348°
2026-04-21 22:34 31.08575 -65.55128 30528 ft 474 kts 349°
2026-04-21 22:34 31.11850 -65.55388 30097 ft 468 kts 349°
2026-04-21 22:34 31.15099 -65.55645 29632 ft 462 kts 349°
2026-04-21 22:34 31.18260 -65.55896 29145 ft 458 kts 349°
2026-04-21 22:35 31.21442 -65.56149 28621 ft 454 kts 349°
2026-04-21 22:35 31.24572 -65.56399 28099 ft 450 kts 349°
2026-04-21 22:35 31.27687 -65.56648 27585 ft 446 kts 349°
2026-04-21 22:35 31.30799 -65.56897 27050 ft 443 kts 349°
2026-04-21 22:36 31.36855 -65.57381 26016 ft 436 kts 350°
2026-04-21 22:36 31.39882 -65.57624 25483 ft 433 kts 350°
2026-04-21 22:36 31.42871 -65.57864 24963 ft 430 kts 350°
2026-04-21 22:37 31.45854 -65.58103 24426 ft 426 kts 350°
2026-04-21 22:37 31.48794 -65.58339 23896 ft 423 kts 350°
2026-04-21 22:37 31.51713 -65.58573 23376 ft 420 kts 351°
2026-04-21 22:37 31.54607 -65.58806 22850 ft 417 kts 351°
2026-04-21 22:38 31.57479 -65.59037 22318 ft 413 kts 351°
2026-04-21 22:38 31.60361 -65.59269 21789 ft 410 kts 351°
2026-04-21 22:38 31.63201 -65.59497 21262 ft 407 kts 351°
2026-04-21 22:38 31.66005 -65.59723 20724 ft 404 kts 351°
2026-04-21 22:39 31.68802 -65.59949 20196 ft 401 kts 351°
2026-04-21 22:39 31.71558 -65.60171 19677 ft 398 kts 351°
2026-04-21 22:39 31.74317 -65.60394 19146 ft 395 kts 351°
2026-04-21 22:39 31.77079 -65.60617 18606 ft 393 kts 351°
2026-04-21 22:40 31.79796 -65.60836 18080 ft 390 kts 351°
2026-04-21 22:40 31.82482 -65.61053 17555 ft 387 kts 351°
2026-04-21 22:40 31.85144 -65.61269 17026 ft 385 kts 351°
2026-04-21 22:40 31.87800 -65.61484 16454 ft 384 kts 351°
2026-04-21 22:41 31.90490 -65.61702 15876 ft 382 kts 351°
2026-04-21 22:41 31.93097 -65.61912 15353 ft 379 kts 351°
2026-04-21 22:41 31.95733 -65.62126 14823 ft 377 kts 351°
2026-04-21 22:41 31.98336 -65.62337 14290 ft 374 kts 351°
2026-04-21 22:42 32.00950 -65.62455 13760 ft 375 kts 358°
2026-04-21 22:42 32.03529 -65.62005 13248 ft 378 kts
2026-04-21 22:42 32.06024 -65.60941 12701 ft 383 kts 21°
2026-04-21 22:42 32.08301 -65.59292 12193 ft 385 kts 33°
2026-04-21 22:43 32.10237 -65.57149 11932 ft 381 kts 45°
2026-04-21 22:43 32.11766 -65.54652 11684 ft 377 kts 56°
2026-04-21 22:43 32.12883 -65.51821 11473 ft 383 kts 67°
2026-04-21 22:43 32.13524 -65.48809 11255 ft 380 kts 79°
2026-04-21 22:44 32.13825 -65.45739 11053 ft 370 kts 81°
2026-04-21 22:44 32.14082 -65.42781 10836 ft 361 kts 81°
2026-04-21 22:44 32.14339 -65.39880 10631 ft 353 kts 81°
2026-04-21 22:44 32.14599 -65.37036 10442 ft 344 kts 80°
2026-04-21 22:45 32.14855 -65.34287 10257 ft 335 kts 81°
2026-04-21 22:45 32.15111 -65.31575 10064 ft 327 kts 81°
2026-04-21 22:45 32.15361 -65.28956 9872 ft 315 kts 81°
2026-04-21 22:45 32.15602 -65.26432 9717 ft 305 kts 80°
2026-04-21 22:46 32.15835 -65.24000 9535 ft 298 kts 81°
2026-04-21 22:46 32.16066 -65.21596 9356 ft 293 kts 81°
2026-04-21 22:46 32.16293 -65.19218 9184 ft 292 kts 81°
2026-04-21 22:46 32.16522 -65.16819 9013 ft 292 kts 80°
2026-04-21 22:47 32.16746 -65.14457 8838 ft 289 kts 80°
2026-04-21 22:47 32.16967 -65.12134 8668 ft 287 kts 80°
2026-04-21 22:47 32.17188 -65.09803 8499 ft 286 kts 80°
2026-04-21 22:47 32.17409 -65.07458 8327 ft 283 kts 80°
2026-04-21 22:48 32.17627 -65.05154 8161 ft 283 kts 80°
2026-04-21 22:48 32.17840 -65.02883 7996 ft 281 kts 80°
2026-04-21 22:48 32.18053 -65.00606 7859 ft 274 kts 79°
2026-04-21 22:48 32.18260 -64.98390 7683 ft 267 kts 79°
2026-04-21 22:49 32.18461 -64.96251 7417 ft 265 kts 79°
2026-04-21 22:49 32.18662 -64.94102 7158 ft 262 kts 79°
2026-04-21 22:49 32.18859 -64.91987 6891 ft 259 kts 79°
2026-04-21 22:49 32.19056 -64.89867 6626 ft 257 kts 79°
2026-04-21 22:50 32.19249 -64.87795 6361 ft 254 kts 78°
2026-04-21 22:50 32.19439 -64.85741 6083 ft 253 kts 78°
2026-04-21 22:50 32.19631 -64.83677 5795 ft 252 kts 78°
2026-04-21 22:50 32.19820 -64.81631 5513 ft 250 kts 78°
2026-04-21 22:51 32.20008 -64.79593 5218 ft 250 kts 78°
2026-04-21 22:51 32.20195 -64.77554 4938 ft 248 kts 78°
2026-04-21 22:51 32.20380 -64.75547 4654 ft 247 kts 78°
2026-04-21 22:51 32.20564 -64.73538 4395 ft 246 kts 78°
2026-04-21 22:52 32.20748 -64.71532 4215 ft 246 kts 78°
2026-04-21 22:52 32.20932 -64.69518 4074 ft 245 kts 78°
2026-04-21 22:52 32.21114 -64.67518 3918 ft 244 kts 78°
2026-04-21 22:52 32.21295 -64.65532 3748 ft 244 kts 78°
2026-04-21 22:53 32.21475 -64.63550 3611 ft 243 kts 78°
2026-04-21 22:53 32.21652 -64.61595 3584 ft 236 kts 78°
2026-04-21 22:53 32.21822 -64.59703 3584 ft 228 kts 77°
2026-04-21 22:53 32.21988 -64.57872 3572 ft 221 kts 77°
2026-04-21 22:54 32.22152 -64.56065 3449 ft 220 kts 77°
2026-04-21 22:54 32.22314 -64.54279 3304 ft 219 kts 77°
2026-04-21 22:54 32.22474 -64.52504 3171 ft 218 kts 77°
2026-04-21 22:54 32.22649 -64.50716 3027 ft 214 kts 71°
2026-04-21 22:55 32.23266 -64.49199 3008 ft 209 kts 42°
2026-04-21 22:55 32.24406 -64.48251 2885 ft 197 kts 16°
2026-04-21 22:55 32.25729 -64.47831 2665 ft 189 kts 10°
2026-04-21 22:55 32.26968 -64.47520 2633 ft 175 kts
2026-04-21 22:56 32.28146 -64.47239 2418 ft 171 kts
2026-04-21 22:56 32.29303 -64.46965 2184 ft 169 kts
2026-04-21 22:56 32.30471 -64.46689 2066 ft 166 kts
2026-04-21 22:56 32.31610 -64.46737 1761 ft 165 kts 342°
2026-04-21 22:57 32.32542 -64.47443 1554 ft 157 kts 316°
2026-04-21 22:57 32.33067 -64.48537 1500 ft 154 kts 292°
2026-04-21 22:57 32.33277 -64.49741 1519 ft 148 kts 288°
2026-04-21 22:57 32.33468 -64.50932 1506 ft 145 kts 288°
2026-04-21 22:58 32.33670 -64.52106 1513 ft 147 kts 288°
2026-04-21 22:58 32.33878 -64.53311 1508 ft 148 kts 289°
2026-04-21 22:58 32.34084 -64.54503 1507 ft 150 kts 289°
2026-04-21 22:58 32.34293 -64.55705 1514 ft 150 kts 289°
2026-04-21 22:59 32.34500 -64.56899 1509 ft 148 kts 289°
2026-04-21 22:59 32.34710 -64.58100 1417 ft 151 kts 288°
2026-04-21 22:59 32.34916 -64.59302 1230 ft 151 kts 288°
2026-04-21 22:59 32.35130 -64.60525 1014 ft 151 kts 288°
2026-04-21 23:00 32.35338 -64.61727 830 ft 150 kts 288°
2026-04-21 23:00 32.35546 -64.62942 628 ft 148 kts 287°
2026-04-21 23:00 32.35740 -64.64143 402 ft 151 kts 289°
2026-04-21 23:00 32.35894 -64.64907 324 ft 152 kts 287°
2026-04-21 23:01 32.36053 -64.65862 125 ft 153 kts 287°
2026-04-21 23:01 32.36266 -64.67069 29 ft 141 kts 282°
2026-04-21 23:01 32.36430 -64.68022 32 ft 97 kts 282°
2026-04-21 23:01 32.36534 -64.68632 29 ft 53 kts 281°
2026-04-21 23:02 32.36587 -64.68934 29 ft 31 kts 283°
2026-04-21 23:02 32.36613 -64.69087 29 ft 12 kts 280°
2026-04-21 23:02 32.36613 -64.69183 29 ft 11 kts 253°
2026-04-21 23:02 32.36585 -64.69264 29 ft 9 kts 247°
2026-04-21 23:03 32.36560 -64.69337 29 ft 9 kts 248°
2026-04-21 23:03 32.36536 -64.69404 28 ft 8 kts 247°
2026-04-21 23:03 32.36513 -64.69469 28 ft 8 kts 247°
2026-04-21 23:03 32.36490 -64.69534 28 ft 8 kts 247°
2026-04-21 23:04 32.36468 -64.69598 28 ft 8 kts 248°
2026-04-21 23:04 32.36447 -64.69659 28 ft 7 kts 248°
2026-04-21 23:04 32.36425 -64.69722 29 ft 10 kts 247°
2026-04-21 23:04 32.36400 -64.69793 29 ft 8 kts 246°
2026-04-21 23:05 32.36374 -64.69862 30 ft 10 kts 247°
2026-04-21 23:05 32.36350 -64.69931 31 ft 8 kts 247°
2026-04-21 23:05 32.36327 -64.69994 31 ft 9 kts 247°
2026-04-21 23:05 32.36303 -64.70063 31 ft 8 kts 247°
2026-04-21 23:06 32.36281 -64.70126 31 ft 5 kts 248°
2026-04-21 23:06 32.36274 -64.70144 31 ft 0 kts 248°
2026-04-21 23:06 32.36274 -64.70145 31 ft 0 kts 248°
2026-04-21 23:06 32.36272 -64.70150 31 ft 0 kts 248°
2026-04-21 23:07 32.36264 -64.70167 31 ft 5 kts 238°
2026-04-21 23:07 32.36247 -64.70213 31 ft 6 kts 248°
2026-04-21 23:07 32.36234 -64.70252 30 ft 5 kts 248°
2026-04-21 23:07 32.36225 -64.70278 30 ft 0 kts 248°
2026-04-21 23:08 32.36224 -64.70281 30 ft 0 kts 248°